Regional Weather Roundup
Issued by NWS

Home | Current Version | Previous Version | Text Only | Print | Product List | Glossary Off
Versions: 1 2 3 4 5 6 7 8 9 10 11 12 13 14 15 16 17 18 19 20 21 22 23 24 25 26 27 28 29 30 31 32 33 34 35 36 37 38 39 40 41 42 43 44 45 46 47 48 49 50

000
ASUS45 KTFX 271619
RWRMT
MONTANA HOURLY WEATHER ROUNDUP
NATIONAL WEATHER SERVICE GREAT FALLS MT
919 AM MST TUE JAN 27 2015

NOTE: "FAIR" INDICATES FEW OR NO CLOUDS BELOW 12000 FEET WITH NO
SIGNIFICANT WEATHER AND/OR OBSTRUCTIONS TO VISIBILITY.

* THESE STATIONS ARE NOT UNDER NWS QUALITY CONTROL. THEY DO NOT
   REPORT WEATHER SUCH AS PRECIPITATION OR FOG.

MTZ001>007-043-271700-
WEST OF THE DIVIDE
CITY           SKY/WX    TMP DP  RH WIND       PRES   REMARKS
KALISPELL      PTCLDY    18  16  92 W3        29.99S
MISSOULA       PTSUNNY   23  21  92 SE3       30.07R
BUTTE          CLOUDY    27  23  85 S5        30.05F WCI  21
MULLAN PASS    PTSUNNY   41  27  58 S6        30.01S
* ANACONDA     PTSUNNY   32  25  75 N5         N/A   WCI  27
* ESSEX        N/A       24  23  96 N/A        N/A
* EUREKA APT   PTSUNNY   28  27  96 CALM      29.99S
* HAMILTON APT PTSUNNY   32  27  82 CALM      30.04S
* LIBBY APT    SUNNY     27  25  92 CALM      30.03S VSB M1/4
* LINCOLN      N/A       20  18  92 E1         N/A
* LOOKOUT PASS N/A       33  29  85 S3         N/A
* POLSON       N/A       35  29  79 SE1        N/A
* RONAN APT    PTSUNNY   28  27  96 N/A        N/A
* SEELEY LAKE  N/A       17  15  92 VRB2       N/A
* THOMP F APT  PTCLDY    39  23  53 NE4        N/A
$$

MTZ008-052>055-271700-
SOUTHWEST MONTANA
CITY           SKY/WX    TMP DP  RH WIND       PRES   REMARKS
BOZEMAN        SUNNY     32  27  82 CALM      30.04S
DILLON         CLOUDY    37  27  67 S10       30.05F WCI  30
* W YELLOWSTON PTCLDY    15  13  92 NW1        N/A
* THREE FORKS  PTCLDY    25  25 100 N/A        N/A
* BOULDER HILL N/A       36  21  54 SW12       N/A   WCI  28
* MONIDA PASS  N/A       31  23  72 E11        N/A   WCI  22
* RAYNOLDS PAS N/A       27  15  61 SE11G20    N/A   WCI  17
* WHITEHALL    N/A       30  25  82 N/A        N/A
* WISE RIVER   N/A       21  19  92 W2         N/A
$$

MTZ009>010-012-014-046-048-049-054-271700-
EAST SLOPES AND CENTRAL MONTANA
CITY           SKY/WX    TMP DP  RH WIND       PRES   REMARKS
CUT BANK       CLOUDY    48  25  41 W16       29.87R
GREAT FALLS    CLOUDY    50  28  43 S15       29.90S
HELENA         PTCLDY    30  28  92 CALM      30.03R
MALMSTROM AFB  CLOUDY    48  30  50 SW7       29.91R
* CONRAD       CLOUDY    43  28  56 CALM       N/A
* DEARBORN     N/A       47  28  48 S4G9       N/A
* EAST GLACIER N/A       44  22  42 W4G11      N/A
* MONARCH      N/A       47  19  33 S13        N/A
* PENDROY      N/A       51  24  35 NW10       N/A
* ROGERS PASS  N/A       41  23  49 NW6        N/A
* SWEET GRASS  N/A       45  24  44 SW10       N/A
* WHITE SULPH  N/A       41  26  55 S6         N/A
$$

MTZ011-013-016-021-035-040-045-047-050-051-271700-
NORTH CENTRAL MONTANA
CITY           SKY/WX    TMP DP  RH WIND       PRES   REMARKS
HAVRE          CLOUDY    46  30  54 SW14      29.85R
LEWISTOWN      CLOUDY    45  28  51 SW15      29.93R
* N BAR RANCH  SUNNY     46  21  37 SW12      29.94S
* CHINOOK      CLOUDY    36  30  79 E5        29.85R WCI  32
* CHESTER      N/A       33  28  82 N/A        N/A
* DENTON       N/A       48  26  42 S5         N/A
* GEYSER       N/A       46  20  36 W10        N/A
* JUDITH GAP   N/A       52  26  36 W5G12      N/A
* LOMA         N/A       45  31  58 NW4        N/A
$$

MTZ017>020-022>027-061-062-271700-
NORTHEAST MONTANA
CITY           SKY/WX    TMP DP  RH WIND       PRES   REMARKS
GLASGOW        CLOUDY    34  30  85 SE5       29.85R WCI  29
GLENDIVE       PTCLDY    37  34  89 SE3       29.89S
JORDAN         CLOUDY    30  28  92 CALM      29.87S
SIDNEY         PTCLDY    36  32  85 S6        29.87S WCI  31
WOLF POINT     PTSUNNY   34  30  85 W8        29.85F WCI  27
* BEAVER HILL  N/A       42  30  63 S13        N/A
* CIRCLE       N/A       38  32  79 N/A        N/A
* LINDSAY DVD  N/A       51  30  45 W9         N/A
* NAVAJO       N/A       39  32  76 W13        N/A   WCI  31
* PLENTYWOOD A PTSUNNY   32  32 100 E3        29.81S
* POPLAR APT   PTCLDY    36  32  85 N/A       29.85S
* SACO         N/A       34  31  89 S10        N/A   WCI  26
$$

MTZ028>042-056>058-271700-
SOUTHCENTRAL AND SOUTHEAST MONTANA
CITY           SKY/WX    TMP DP  RH WIND       PRES   REMARKS
BAKER          SUNNY     36  30  79 CALM      29.92S
BILLINGS       PTSUNNY   45  28  51 SW14      29.94S
LIVINGSTON     PTCLDY    45  25  45 VRB6      29.98F
MILES CITY     PTSUNNY   34  28  79 SE8       29.92R WCI  27
* BIG TIMBER A PTCLDY    52  25  35 W17       29.99S
* FORSYTH APT  PTSUNNY   41  30  65 CALM      29.91S
* LAUREL APT   PTCLDY    39  23  53 SW9        N/A   WCI  33
* ROUNDUP APT  PTSUNNY   46  25  44 S15G21     N/A
* ALZADA       N/A       44  29  56 W1         N/A
* HYSHAM       N/A       51  24  35 W7G12      N/A
* LAME DEER    N/A       54  24  31 W10        N/A
* REED POINT   N/A       27  26  96 E3         N/A
* ROSCOE HILL  N/A       49  11  21 N/A        N/A
$$

REGIONAL REPORTS...DAKOTAS
CITY           SKY/WX    TMP DP  RH WIND       PRES   REMARKS
WILLISTON      PTCLDY    34  30  85 S5        29.84S WCI  29
DICKINSON      PTCLDY    45  34  65 W8        29.84S
BEACH          SUNNY     45  32  60 SW16      29.89R
CROSBY         SUNNY     36  36 100 SW10      29.80F WCI  29
TIOGA          SUNNY     36  36 100 SW10      29.84F WCI  29
WATFORD CITY   SUNNY     32  32 100 SW6       29.83R WCI  26
BISMARCK       PTCLDY    36  30  79 S6        29.91S WCI  31
GRAND FORKS    FOG       28  27  96 S12       30.04F VSB 1    WCI  18
FARGO          FOG       28  27  96 S14       30.08R VSB 2 1/2 WCI  17
BUFFALO SD     SUNNY     46  32  58 W12       29.86S
RAPID CITY     SUNNY     57  27  32 W8        29.96S
$$

REGIONAL REPORTS...WYOMING/IDAHO/WASHINGTON
CITY           SKY/WX    TMP DP  RH WIND       PRES   REMARKS
GILLETTE       PTCLDY    54  27  35 SW20      29.99F
SHERIDAN       PTCLDY    45  28  51 S5        29.96F
CODY           PTCLDY    50  23  35 S13       30.04R
YELLOWSTONE LA PTCLDY     7   5  91 CALM      30.25R
SALMON         CLOUDY   N/A N/A N/A CALM      30.18R VSB 3/4
MULLAN PASS    PTSUNNY   41  27  58 S6        30.01S
SAND POINT     FOG      N/A N/A N/A CALM      30.03R VSB 1/2
SPOKANE        FOG       30  28  92 NE6       29.99R VSB M1/4 WCI  24
$$

REGIONAL REPORTS...ALBERTA
CITY           SKY/WX    TMP DP  RH WIND       PRES   REMARKS
CALGARY        PTSUNNY   46  25  44 VRB3      29.75S
LETHBRIDGE     PTSUNNY   48  25  41 W16       29.81S
MEDICINE HAT   PTSUNNY   37  32  82 SW8       29.79R WCI  31
EDMONTON       FOG       28  27  96 VRB2      29.76S
WATERTON GATE  N/A       52  16  24 SW9        N/A
CARDSTON       N/A       41  25  53 S6         N/A
MILK RIVER     N/A       34  27  76 SW2        N/A
$$

REGIONAL REPORTS...SASKATCHEWAN
CITY           SKY/WX    TMP DP  RH WIND       PRES   REMARKS
SWIFT CURRENT  PTSUNNY   36  30  79 W15       29.76S WCI  27
MOOSE JAW      PTSUNNY   28  28 100 CALM      29.78R
REGINA         PTSUNNY   27  25  92 E8        29.78R WCI  19
VAL MARIE      N/A       30  28  92 S5         N/A   WCI  25
ASSINIBOIA     N/A       36  30  79 W7         N/A   WCI  30
CORONACH       N/A       41  32  70 N3         N/A

$$




USA.gov is the U.S. government's official web portal to all federal, state and local government web resources and services.